Regional Weather Roundup
Issued by NWS Columbia, SC

Current Version | Previous Version | Graphics & Text | Print | Product List | Glossary On
Versions: 1 2 3 4 5 6 7 8 9 10 11 12 13 14 15 16 17 18 19 20 21 22 23 24 25 26 27 28
000
ASUS42 KCAE 261010
RWRCAE
REGIONAL WEATHER ROUNDUP
NATIONAL WEATHER SERVICE COLUMBIA SC
600 AM EDT SUN JUN 26 2022

NOTE: "FAIR" INDICATES FEW OR NO CLOUDS BELOW 12,000 FEET WITH NO
SIGNIFICANT WEATHER AND/OR OBSTRUCTIONS TO VISIBILITY.

NOT ALL STATIONS ARE QUALITY CONTROLLED BY THE NATIONAL
WEATHER SERVICE. USE DATA WITH CAUTION...ESPECIALLY
DEWPOINT OBSERVATIONS.

SCZ001>059-115-116-135>137-GAZ040-063>065-077-261100-
...UPSTATE SOUTH CAROLINA...

CITY           SKY/WX    TMP DP  RH WIND       PRES   REMARKS
ANDERSON       CLOUDY    74  68  81 CALM      30.16R
LIBERTY        CLOUDY    69  68  98 CALM      30.17R
SPARTANBURG    MOCLDY    68  66  94 CALM      30.17R
CLEMSON        CLOUDY    72  69  90 CALM      30.17R
GREENVILLE     MOCLDY    75  65  70 SW5       30.18R
GREENWOOD      CLOUDY    67  64  90 CALM      30.17R
GREER          CLOUDY    72  64  76 CALM      30.17R
ROCK HILL      MOCLDY    68  64  87 CALM      30.17R
LAURENS        PTCLDY    68  64  88 CALM      30.16S


...CENTRAL SOUTH CAROLINA...

CITY           SKY/WX    TMP DP  RH WIND       PRES   REMARKS
COLUMBIA APT   MOCLDY    71  66  84 CALM      30.14R
COLUMBIA OWENS PTCLDY    70  65  84 CALM      30.15R
MCENTIRE ANGB  PTCLDY    65  65 100 CALM      30.13R
ORANGEBURG     PTCLDY    69  67  93 NE3       30.14R
SUMTER SHAW    CLEAR     66  62  87 CALM      30.14R
NEWBERRY       PTCLDY    68  64  88 CALM      30.18R
AIKEN          FAIR      65  61  86 E5        30.16R
BARNWELL       FAIR      68  66  94 CALM      30.13R
MANNING        FAIR      63  63 100 CALM      30.14R
CAMDEN         FAIR      66  61  82 CALM      30.16R
LANCASTER      MOCLDY    68  63  83 CALM      30.17R
WINNSBORO      PTCLDY    68  63  83 CALM      30.16R


...EASTERN AND COASTAL SOUTH CAROLINA...

CITY           SKY/WX    TMP DP  RH WIND       PRES   REMARKS
MYRTLE BEACH   CLEAR     73  69  87 N5        30.13R
N MYRTLE BCH   CLEAR     68  66  93 CALM      30.12R
CONWAY         FAIR      63  61  94 CALM      30.14R
MARION         FAIR      64  61  88 CALM      30.15R
HARTSVILLE     MOCLDY    66  63  88 CALM      30.16R
FLORENCE       CLEAR     68  63  84 CALM      30.15R
DARLINGTON     CLEAR     66  64  93 CALM      30.15R
CHARLESTON APT PTCLDY    70  68  93 N3        30.11R
MOUNT PLEASANT   N/A     70  70 100 CALM      30.11R
WALTERBORO     CLEAR     64  64 100 CALM      30.13R
BEAUFORT       PTCLDY    72  70  93 CALM      30.11R
HILTON HEAD    MOCLDY    73  70  88 CALM      30.11R


...EASTERN GEORGIA...

CITY           SKY/WX    TMP DP  RH WIND       PRES   REMARKS
AUGUSTA BUSH F PTCLDY    65  64  97 CALM      30.12R
AUGUSTA DANIEL PTCLDY    73  66  78 CALM      30.14R
THOMSON        PTCLDY    71  67  85 CALM      30.14R
WASHINGTON     FAIR      71  65  81 CALM      30.15R
CLAXTON        FAIR      67  65  96 CALM      30.11R
STATESBORO       N/A     66  65  94 CALM      30.12R FOG
SAVANNAH       PTCLDY    70  68  93 CALM      30.10R


...SOUTHERN NORTH CAROLINA...

CITY           SKY/WX    TMP DP  RH WIND       PRES   REMARKS
CHARLOTTE      MOCLDY    71  63  75 S5        30.16R
MONROE         PTCLDY    67  61  81 CALM      30.16R
WADESBORO      CLEAR     65  61  87 CALM      30.16R
ROCKINGHAM     CLEAR     68  64  88 CALM      30.15R
RUTHERFORDTON  MOCLDY    68  68 100 CALM      30.18S
ASHEVILLE      MOCLDY    65  62  90 SE3       30.22S

$$



USA.gov is the U.S. government's official web portal to all federal, state and local government web resources and services.